GW6093 Weather Reports


time (UTC)temp
C
wind
direction
speed
KPH
gust
KPH
rain 1hr
cm
rain 24hr
cm
rain mn
cm
humidity
%
barometer
mb
20260504140108 21 0 0.0 3.2 0.00 0.00 0.00 51 1018.7
20260504130114 18 0 0.0 0.0 0.00 0.00 0.00 72 1018.4
20260504120133 12 0 0.0 0.0 0.00 0.00 0.00 96 1018.2
20260504081603 10 0 0.0 0.0 0.00 0.03 0.00 92 1017.8
20260504044556 13 0 0.0 0.0 0.00 0.03 0.00 87 1019.0
20260504043114 13 0 0.0 0.0 0.00 0.03 0.00 86 1019.2
20260504041555 13 0 0.0 0.0 0.00 0.03 0.00 85 1019.2
20260504040056 13 0 0.0 0.0 0.00 0.03 0.00 83 1019.2
20260504034557 14 0 0.0 0.0 0.00 0.03 0.03 83 1019.2
20260504033107 15 0 0.0 0.0 0.00 0.03 0.03 81 1019.1
20260504031559 15 0 0.0 0.0 0.00 0.03 0.03 80 1019.0
20260504030109 15 0 0.0 0.0 0.00 0.03 0.03 78 1018.8
20260504024557 16 0 0.0 0.0 0.00 0.03 0.03 77 1018.8
20260504023057 16 0 0.0 0.0 0.00 0.03 0.03 76 1018.6
20260504021554 17 0 0.0 0.0 0.00 0.03 0.03 69 1018.6
20260504020105 18 0 0.0 0.0 0.00 0.03 0.03 68 1018.3
20260504014606 18 0 0.0 0.0 0.00 0.03 0.03 67 1018.2
20260504013057 19 0 0.0 0.0 0.00 0.03 0.03 64 1017.8
20260504011558 20 0 0.0 0.0 0.00 0.03 0.03 61 1017.6
20260504010100 20 0 0.0 0.0 0.00 0.03 0.03 60 1017.2
20260504004557 20 0 0.0 0.0 0.00 0.03 0.03 58 1017.2
20260504003101 21 0 0.0 0.0 0.00 0.03 0.03 57 1017.2
20260504001601 21 0 0.0 0.0 0.00 0.03 0.03 55 1017.2
20260504000103 22 0 0.0 0.0 0.00 0.03 0.03 53 1017.0
20260503234554 22 0 0.0 0.0 0.00 0.03 0.03 53 1016.8
20260503233054 23 0 0.0 3.2 0.00 0.03 0.03 49 1016.9
20260503231558 23 0 0.0 0.0 0.00 0.03 0.03 47 1016.8
20260503230111 25 0 0.0 0.0 0.00 0.03 0.03 43 1016.8
20260503224609 25 0 0.0 0.0 0.00 0.03 0.03 37 1016.3
20260503223111 25 0 0.0 0.0 0.00 0.03 0.03 36 1016.4
20260503221556 25 0 0.0 0.0 0.00 0.03 0.03 36 1016.5
20260503220057 26 0 0.0 0.0 0.00 0.03 0.03 36 1016.7
20260503214600 25 0 0.0 0.0 0.00 0.03 0.03 37 1016.7
20260503213057 26 0 0.0 0.0 0.00 0.03 0.03 35 1016.7
20260503211556 25 0 0.0 0.0 0.00 0.03 0.03 36 1016.6
20260503210054 25 0 0.0 0.0 0.00 0.03 0.03 37 1016.7
20260503204557 26 0 0.0 0.0 0.00 0.03 0.03 35 1016.8
20260503203058 25 0 0.0 1.6 0.00 0.03 0.03 39 1017.1
20260503201557 24 0 0.0 0.0 0.00 0.03 0.03 40 1017.2
20260503200058 24 0 0.0 0.0 0.00 0.03 0.03 40 1017.3
20260503194619 23 0 0.0 3.2 0.00 0.03 0.03 42 1017.5
20260503193056 23 0 0.0 0.0 0.00 0.03 0.03 41 1017.6
20260503191604 24 0 0.0 0.0 0.00 0.03 0.03 44 1018.1
20260503190058 24 0 0.0 0.0 0.00 0.03 0.03 45 1018.2
20260503184559 23 0 0.0 3.2 0.00 0.03 0.03 45 1018.3
20260503183105 23 0 0.0 3.2 0.00 0.03 0.03 46 1018.5
20260503181608 23 0 0.0 0.0 0.00 0.03 0.03 48 1018.6
20260503180057 23 0 0.0 0.0 0.00 0.03 0.03 50 1018.8
20260503174616 22 0 0.0 0.0 0.00 0.03 0.03 52 1018.8
20260503173103 22 0 0.0 0.0 0.00 0.03 0.03 54 1018.9
20260503171557 22 0 0.0 0.0 0.00 0.03 0.03 50 1019.1
20260503170110 22 0 0.0 0.0 0.00 0.03 0.03 55 1019.3